Weather History for PAVL - August, 2013

Change the Weather History Date:

Friday, August 16, 2013

  Actual Average Record
Temperature  
Mean Temperature 52 °F -  
Max Temperature 63 °F - - ()
Min Temperature 41 °F - - ()
Degree Days  
Heating Degree Days 14    
Growing Degree Days 2 (Base 50)    
Moisture  
Dew Point 45 °F    
Average Humidity 79    
Maximum Humidity 100    
Minimum Humidity 58    
Precipitation  
Precipitation 0.00 in - - ()
Sea Level Pressure  
Sea Level Pressure 29.72 in    
Wind  
Wind Speed 11 mph (NNE)    
Max Wind Speed 17 mph    
Max Gust Speed -    
Visibility 10 miles    
Events      
T = Trace of Precipitation, MM = Missing Value Source: NWS Daily Summary

Daily Weather History Graph

Daily Weather History Graph

Search for Another Location

Airport or City:

Trip Planner

Search our weather history database for the weather conditions in past years. The results will help you decide how hot, cold, wet, or windy it might be!

Date:

Astronomy

Aug. 16, 2013 Rise Set
Actual Time 6:26 AM AKDT 11:34 PM AKDT
Civil Twilight 4:58 AM AKDT 1:00 AM AKDT
Nautical Twilight Sun does not rise Sun does not rise
Astronomical Twilight Sun does not rise Sun does not rise
Moon 9:24 PM AKDT (8/16) 12:19 AM AKDT (8/16)
Length of Visible Light 20h 01m
Length of Day
17h 08m
Waxing Gibbous, 76% of the Moon is Illuminated
Aug 16
Waxing Gibbous
Aug 20
Full
Aug 28
Last Quarter
Sep 5
New
Sep 12
First Quarter

Hourly Weather History & Observations

Time (AKDT) Temp. Windchill Dew Point Humidity Pressure Visibility Wind Dir Wind Speed Gust Speed Precip Events Conditions
12:53 AM 46.0 °F 41.0 °F 44.1 °F 93% 29.76 in 10.0 mi NNE 10.4 mph - N/A   Clear
1:53 AM 44.1 °F 38.1 °F 43.0 °F 96% 29.76 in 10.0 mi NE 11.5 mph - N/A   Clear
2:53 AM 43.0 °F 38.2 °F 43.0 °F 100% 29.75 in 10.0 mi NE 8.1 mph - N/A   Clear
3:53 AM 42.1 °F 37.1 °F 42.1 °F 100% 29.74 in 10.0 mi NE 8.1 mph - N/A   Clear
4:53 AM 41.0 °F 35.8 °F 41.0 °F 100% 29.74 in 10.0 mi NE 8.1 mph - N/A   Clear
5:53 AM 41.0 °F 35.2 °F 41.0 °F 100% 29.74 in 10.0 mi NE 9.2 mph - N/A   Clear
6:53 AM 41.0 °F 35.2 °F 41.0 °F 100% 29.74 in 10.0 mi NE 9.2 mph - N/A   Partly Cloudy
7:53 AM 42.1 °F 35.2 °F 41.0 °F 96% 29.74 in 10.0 mi NNE 12.7 mph - N/A   Clear
8:53 AM 43.0 °F 36.8 °F 39.9 °F 89% 29.75 in 10.0 mi NNE 11.5 mph - N/A   Clear
9:53 AM 46.0 °F 41.0 °F 42.1 °F 86% 29.74 in 10.0 mi NNE 10.4 mph - N/A   Clear
10:53 AM 48.9 °F - 44.1 °F 83% - 10.0 mi NNE 11.5 mph - N/A   Clear
11:53 AM 55.0 °F - 45.0 °F 69% 29.73 in 10.0 mi NE 8.1 mph - N/A   Clear
12:23 PM 55.4 °F - 44.6 °F 67% 29.73 in 0.8 mi NE 6.9 mph - N/A   Haze
12:34 PM 57.2 °F - 44.6 °F 63% 29.73 in - NE 8.1 mph - N/A   Clear
12:53 PM 57.9 °F - 46.0 °F 65% 29.73 in - NE 6.9 mph - N/A   Clear
1:53 PM 59.0 °F - 46.0 °F 62% 29.72 in - NNW 6.9 mph - N/A   Clear
2:53 PM 59.0 °F - 48.9 °F 69% 29.72 in 10.0 mi WNW 10.4 mph - N/A   Partly Cloudy
3:53 PM 60.1 °F - 50.0 °F 69% 29.71 in 10.0 mi WNW 12.7 mph - N/A   Clear
4:53 PM 60.1 °F - 51.1 °F 72% 29.70 in 10.0 mi WNW 12.7 mph - N/A   Clear
5:53 PM 62.1 °F - 51.1 °F 67% 29.69 in 10.0 mi West 9.2 mph - N/A   Clear
6:53 PM 62.1 °F - 46.9 °F 58% 29.68 in 10.0 mi North 16.1 mph - N/A   Clear
7:53 PM 60.1 °F - 46.9 °F 62% 29.68 in 10.0 mi North 16.1 mph - N/A   Clear
8:53 PM 59.0 °F - 46.9 °F 64% 29.68 in 10.0 mi North 16.1 mph - N/A   Clear
9:53 PM 57.0 °F - 46.9 °F 69% 29.69 in 10.0 mi North 17.3 mph - N/A   Clear
10:53 PM 55.0 °F - 46.0 °F 72% 29.69 in 10.0 mi North 16.1 mph - N/A   Clear
11:53 PM 52.0 °F - 46.0 °F 80% 29.70 in 10.0 mi North 16.1 mph - N/A   Clear